International Virtual Aviation Organisation

Russian Federation and Kazakhstan MCD

 

Карточка аэропорта UUWW

Внимание!
Информация на этой странице в стадии наполнения.
Если вы не увидели какой-то информации, или заметили неточность - пожалуйста сообщите нам!
Спасибо!
Команда RU-STAFF
Название аэропортаВнуково
Название аэропорта (англ.)Vnukovo
Превышение686 ft. (209.1 m.)
Координаты55°35.952', 37°16.386'
Высота перехода1200 m
Эшелон переходаBy ATC
Коды ответчика2101-2117
Зона ОрВДМосква РПИ (UUWV)
Данные METARUUWW 250430Z 24003MPS 6000 -SHSN BKN004 BKN023CB 00/M00 Q1011 R24/520242 TEMPO 1200 SHSN BKN012CB
Проноз погоды (TAF)UUWW 250159Z 2503/2603 29003MPS 8000 FEW004 BKN007 TX01/2512Z TNM01/2603Z TEMPO 2503/2512 2100 -SHSN OVC003 BKN012CB PROB40 TEMPO 2518/2603 0300 FZFG OVC003
NOTAMshow/hide NOTAM
AWOS   TABLE

Информация о ВПП

ВПП Длина ВПП (м.) Покрытие Курс ВПП Частота ILS
013060Асфальтобетон13111.7
193060Асфальтобетон193111.5
063500Цементобетон58108.9
243500Цементобетон238111.1

Диспетчерские позиции

Позывной Наименование органа УВД Частота
UUWW_APPВнуково-Подход122.300
UUWW_TWRВнуково-Вышка118.300
UUWW_R_APPВнуково-Круг126.000
UUWW_GNDВнуково-Руление120.450
UUWW_GNDВнуково-Руление121.700
UUWW_DELВнуково-Деливери131.800
UUWW_DELВнуково-Деливери129.700



Спутниковое изображение